パンスターズ彗星

P/2015 HG16 ( PanSTARRS )

English version
Home page
Updated on September 23, 2018

---------------------------------------------------------------------

・ プロフィール

発見日 2015年4月20日
発見光度 20.7等
発見者 Pan-STARRS 1 telescope (Haleakala)

・ 写真集

・ 軌道要素

Epoch 2014 July 2.0 TT = JDT 2456840.5
T 2014 June 28.96063 TT                                 MPCW
q   3.1317753            (2000.0)            P               Q
n   0.09401259     Peri.   48.15123     -0.26914635     -0.92188620
a   4.7901088      Node    59.52547     +0.75971208     -0.38109597
e   0.3461995      Incl.   18.86855     +0.59194408     +0.06994057
P  10.48
From 38 observations 2015 Mar. 24-2018 July 14, mean residual 0".5.

・ 光度変化

        m1 = 12.5 + 5 logΔ + 10.0 log r

---------------------------------------------------------------------

軌道要素はM.P.E.C. 2018-S50に掲載されたものです。
光度グラフはComet for Windowsで作成したものです。

---------------------------------------------------------------------

Copyright(C) Seiichi Yoshida (comet@aerith.net). All rights reserved.